Terminal Aerodrome Forecast
Issued by NWS

Home | Current Version | Previous Version | Text Only | Print | Product List | Glossary On
Versions: 1 2 3 4 5 6 7 8 9 10 11 12 13 14 15 16 17 18 19 20 21 22
000
FTUS44 KHGX 240520
TAFSGR
TAF
KSGR 240520Z 2406/2506 14011KT P6SM SKC
     FM240800 16011KT P6SM BKN015
     FM241500 18018G23KT P6SM BKN025
     FM241900 18018G28KT P6SM -TSRA VCTS BKN030CB
      TEMPO 2422/2424 VRB30KT 3SM TSRA
     FM250300 19012KT P6SM OVC015=

USA.gov is the U.S. government's official web portal to all federal, state and local government web resources and services.